Retour au catalogue

THORAD AGENA D DEB

ActifSSO
NORAD 4864·DEBRIS·🇺🇸 United States

Lancé Apr 8, 1970 depuis Vandenberg Space Force Base

Loading…

Prochains Passages

TLE

Source: Space-Track
1  4864U 70025EU  26224.23222397 -.00000009  00000-0  52527-4 0  9997
2  4864  99.5296 336.9152 0045873 347.9846  77.9922 13.49539158768512

Suivez THORAD AGENA D DEB en temps réel avec AllMySat

Download on the App Store